Regional Weather Roundup
Issued by NWS

Home | Current Version | Previous Version | Text Only | Print | Product List | Glossary On
Versions: 1 2 3 4 5 6 7 8 9 10 11 12 13 14 15 16 17 18 19 20 21 22 23 24 25 26 27 28 29 30 31 32 33 34 35 36 37 38 39 40 41 42 43 44 45 46 47 48 49 50
000
ASUS45 KTFX 210510
RWRMT
MONTANA REGIONAL WEATHER ROUNDUP
NATIONAL WEATHER SERVICE GREAT FALLS MT
1000 PM MST FRI JAN 20 2017

NOTE: "FAIR" INDICATES FEW OR NO CLOUDS BELOW 12000 FEET WITH NO
SIGNIFICANT WEATHER AND/OR OBSTRUCTIONS TO VISIBILITY.

MTZ001>007-043-210600-
WEST OF THE DIVIDE

CITY           SKY/WX    TMP DP  RH WIND       PRES   REMARKS
KALISPELL      PTCLDY    14  13  95 CALM      29.31S
MISSOULA       MOCLDY    23  22  96 CALM      29.33S FOG
BUTTE          CLOUDY     7   3  84 E5        29.31F
MULLAN PASS    CLOUDY    24  21  88 SE10G17   29.21S WCI  14
ANACONDA         N/A     19  12  73 SW3       29.31S
DEER LODGE       N/A     25  16  68 CALM      29.34S
EUREKA           N/A     23  19  86 CALM      29.35R
HAMILTON         N/A     25  21  86 CALM      29.31S
PLAINS           N/A     24  20  85 CALM      29.36F
RONAN            N/A     12   7  81 CALM      29.38S VSB 0
$$

MTZ008-052>055-210600-
SOUTHWEST MONTANA

CITY           SKY/WX    TMP DP  RH WIND       PRES   REMARKS
BOZEMAN        CLOUDY     7   6  96 E5        29.35S
DILLON         CLOUDY    20  13  74 N5        29.31S
W YELLOWSTONE  CLOUDY    18  18 100 CALM      29.35S
ENNIS          CLEAR     21  12  68 S10       29.37S WCI  10
$$

MTZ009-010-012-014-046-048-049-054-210600-
EAST SLOPES AND CENTRAL MONTANA

CITY           SKY/WX    TMP DP  RH WIND       PRES   REMARKS
CUT BANK       CLEAR     20  18  92 E3        29.31S
GREAT FALLS    CLEAR     26  17  68 S9        29.31F WCI  17
MALMSTROM AFB  CLEAR     26  20  77 S3        29.33S
HELENA         CLOUDY    19  16  88 CALM      29.34S
AUGUSTA          N/A     25  20  79 SW5       29.29F
BOWMANS CRNR     N/A     26  18  73 S10       29.29S WCI  16
CHOTEAU          N/A     27  23  86 CALM      29.33S
CONRAD           N/A     13  10  87 SE5       29.40S
POWER            N/A     21  17  86 S5        29.31S
RAYNESFORD       N/A     24  17  77 E7        29.33S WCI  16
ULM              N/A     28  19  70 MISG      29.32F
$$

MTZ011-013-016-021-045-047-050-051-210600-
NORTH CENTRAL MONTANA

CITY           SKY/WX    TMP DP  RH WIND       PRES   REMARKS
HAVRE          CLEAR     21  19  92 SW7       29.36S WCI  12
LEWISTOWN      CLEAR     24  18  77 SE7       29.34S WCI  16
CHINOOK          N/A     25  21  86 CALM      29.36F
DENTON           N/A     26  23  91 S13G21    29.31S WCI  14
FORT BENTON      N/A     30  25  80 MISG      29.35S
GEYSER           N/A     30  17  58 W7        29.32F WCI  23
GRASS RANGE      N/A     25  23  91 SW7       29.32F WCI  17
JUDITH GAP       N/A     24  19  79 S10       29.33F WCI  14
ROY              N/A     33  28  82 MISG      29.33F
STANFORD         N/A     28  19  69 SW13      29.32F WCI  17
WINIFRED         N/A     27  23  84 S5        29.33S
$$

MTZ017>020-022>027-061-062-210600-
NORTHEAST MONTANA

CITY           SKY/WX    TMP DP  RH WIND       PRES   REMARKS
GLASGOW        PTCLDY    29  27  92 W9        29.34S WCI  20
JORDAN           N/A     24  22  91 W6        29.36S WCI  17
SIDNEY         CLOUDY    36  29  75 NW17      29.32S WCI  26
WOLF POINT     CLOUDY    31  27  85 SW8       29.35S WCI  23
PLENTYWOOD       N/A     30  27  86 NW7       29.31R WCI  23
POPLAR           N/A     30  27  86 W10       29.34F WCI  21
$$

MTZ028>42-056>058-210600-
SOUTHCENTRAL AND SOUTHEAST MONTANA

CITY           SKY/WX    TMP DP  RH WIND       PRES   REMARKS
BAKER          CLOUDY    32  29  88 W12       29.35S WCI  23
BILLINGS       CLEAR     30  25  81 SW15      29.37S WCI  19
LIVINGSTON     CLEAR     20  13  74 CALM      29.34S
MILES CITY     FOG       32  30  92 S6        29.36F VSB 1/2 WCI  26
BIG TIMBER     CLEAR     30  19  64 CALM      29.37S
EKALAKA          N/A     32  29  89 W2        29.39
FORSYTH          N/A     30  30 100 SW3       29.37F VSB 1/4
HARLOWTON        N/A     22  16  79 W12       29.34F WCI  10
LAUREL           N/A     24  14  65 SW8       29.41F WCI  15
$$

REGIONAL REPORTS...DAKOTAS

CITY           SKY/WX    TMP DP  RH WIND       PRES   REMARKS
WILLISTON      PTCLDY    25  24  96 SW5       29.31F
MINOT          CLOUDY    29  28  96 E3        29.32F FOG
DICKINSON      CLOUDY    23  20  88 W12       29.28F WCI  12
BEACH          CLOUDY    32  32 100 W14       29.35S WCI  22
CROSBY           N/A     14  12  92 SW8       29.33S WCI   3
TIOGA          FOG       10  10 100 CALM      29.31F VSB 1/4
WATFORD CITY     N/A     19  19 100 SW5       29.31S
BISMARCK       CLOUDY    32  31  96 W3        29.33F FOG
GRAND FORKS    CLOUDY    36  33  89 SE12      29.43F WCI  28
FARGO          CLOUDY    39  35  86 SE10      29.42S
BUFFALO SD       N/A     36  31  82 W25       29.27S WCI  24
RAPID CITY     CLOUDY    36  31  82 NW9       29.35S WCI  29
$$

REGIONAL REPORTS...WYOMING/IDAHO/WASHINGTON

CITY           SKY/WX    TMP DP  RH WIND       PRES   REMARKS
GILLETTE       CLEAR     28  26  92 W5        29.37F
SHERIDAN       CLOUDY    26  22  84 S3        29.37F
BUFFALO WY     CLOUDY    33  28  81 CALM      29.37F
CODY           CLOUDY    17  13  84 CALM      29.37F
YELLOWSTONE LA   N/A      4   2  91 CALM      29.35F
IDAHO FALLS    CLOUDY    17  16  95 N5        29.34F
SALMON         CLOUDY     5   0  78 CALM      29.35R
BOISE          CLOUDY    37  29  72 SE12      29.27S WCI  29
SPOKANE        CLOUDY    36  29  75 NE9       29.22S WCI  29
$$

REGIONAL REPORTS...ALBERTA

CITY           SKY/WX    TMP DP  RH WIND       PRES   REMARKS
EDMONTON       CLEAR     21  14  73 SE2       29.35
CALGARY        CLEAR     19  12  73 N7        29.31S WCI  10
LETHBRIDGE     CLEAR     23  21  93 SW7       29.31S WCI  15
MEDICINE HAT   CLEAR     25  23  93 CALM      29.34R
MILK RIVER       N/A     23  21  93 S5          N/A
ONEFOUR          N/A     21  16  79 E3          N/A
$$

REGIONAL REPORTS...SASKATCHEWAN

CITY           SKY/WX    TMP DP  RH WIND       PRES   REMARKS
SWIFT CURRENT  PTCLDY    28  25  86 W10       29.29S WCI  19
REGINA         MOCLDY    25  23  93 E6        29.29S WCI  18
SASKATOON      CLOUDY    28  27  93 NW3       29.33F
VAL MARIE        N/A     19  18  93 N5          N/A
ASSINIBOIA       N/A     14  12  92 S1          N/A
$$



USA.gov is the U.S. government's official web portal to all federal, state and local government web resources and services.